Lamezia Terme, Italy

7:17 PM CET on February 14, 2016 (GMT +0100)
Terme

Weather History for LICA - September, 2012

Change the Weather History Date:

Wednesday, September 26, 2012

  Actual Average Record
Temperature  
Mean Temperature 76 °F -  
Max Temperature 89 °F 72 °F 89 °F (1999)
Min Temperature 62 °F 56 °F 55 °F (2008)
Cooling Degree Days 10    
Growing Degree Days 26 (Base 50)    
Moisture  
Dew Point 61 °F    
Average Humidity 63    
Maximum Humidity 94    
Minimum Humidity 29    
Precipitation  
Precipitation 0.00 in - - ()
Sea Level Pressure  
Sea Level Pressure 30.00 in    
Wind  
Wind Speed 7 mph ()    
Max Wind Speed 15 mph    
Max Gust Speed -    
Visibility 6.2 miles    
Events      
Averages and records for this station are not official NWS values.
T = Trace of Precipitation, MM = Missing Value Source: Averaged Metar Reports

Daily Weather History Graph

Daily Weather History Graph

Search for Another Location

Airport or City:

Trip Planner

Search our weather history database for the weather conditions in past years. The results will help you decide how hot, cold, wet, or windy it might be!

Date:

Astronomy

Sep. 26, 2012 Rise Set
Actual Time 6:46 AM CEST 6:45 PM CEST
Civil Twilight 6:19 AM CEST 7:11 PM CEST
Nautical Twilight 5:48 AM CEST 7:42 PM CEST
Astronomical Twilight 5:17 AM CEST 8:14 PM CEST
Moon 4:33 PM CEST (9/26) 2:55 AM CEST (9/26)
Length of Visible Light 12h 51m
Length of Day
11h 58m
Waxing Gibbous, 86% of the Moon is Illuminated
Sep 26
Waxing Gibbous
Sep 30
Full
Oct 8
Last Quarter
Oct 15
New
Oct 22
First Quarter

Hourly Weather History & Observations

Time (CEST) Temp. Heat Index Dew Point Humidity Pressure Visibility Wind Dir Wind Speed Gust Speed Precip Events Conditions
12:50 AM 73.4 °F - 68.0 °F 83% 29.98 in 6.2 mi South 3.5 mph - N/A   Partly Cloudy
1:50 AM 68.0 °F - 62.6 °F 83% 30.01 in 6.2 mi East 3.5 mph - N/A   Partly Cloudy
2:50 AM 66.2 °F - 60.8 °F 83% 30.01 in 6.2 mi East 4.6 mph - N/A   Partly Cloudy
3:50 AM 64.4 °F - 60.8 °F 88% 30.01 in 6.2 mi ENE 3.5 mph - N/A   Partly Cloudy
4:50 AM 64.4 °F - 59.0 °F 83% 30.01 in 6.2 mi ENE 3.5 mph - N/A   Partly Cloudy
5:50 AM 62.6 °F - 60.8 °F 94% 30.01 in 6.2 mi East 6.9 mph - N/A   Partly Cloudy
6:50 AM 64.4 °F - 60.8 °F 88% 30.01 in - ENE 6.9 mph - N/A   Clear
7:50 AM 66.2 °F - 62.6 °F 88% 30.01 in - East 5.8 mph - N/A   Clear
8:50 AM 73.4 °F - 64.4 °F 73% 30.01 in - ENE 6.9 mph - N/A   Clear
9:50 AM 80.6 °F 81.8 °F 62.6 °F 54% 30.04 in - NE 6.9 mph - N/A   Clear
10:50 AM 80.6 °F 81.8 °F 62.6 °F 54% 30.04 in - NE 8.1 mph - N/A   Clear
11:50 AM 86.0 °F 86.1 °F 60.8 °F 43% 30.01 in - ENE 13.8 mph - N/A   Clear
12:50 PM 87.8 °F 87.6 °F 60.8 °F 40% 30.01 in - ENE 11.5 mph - N/A   Clear
1:50 PM 89.6 °F 87.7 °F 55.4 °F 31% 30.01 in - ENE 13.8 mph - N/A   Clear
2:50 PM 89.6 °F 87.3 °F 53.6 °F 29% 29.98 in 6.2 mi East 10.4 mph - N/A   Partly Cloudy
3:50 PM 89.6 °F 87.7 °F 55.4 °F 31% 29.98 in 6.2 mi East 13.8 mph - N/A   Partly Cloudy
4:50 PM 84.2 °F 84.4 °F 60.8 °F 45% 29.98 in 6.2 mi East 12.7 mph - N/A   Partly Cloudy
5:50 PM 84.2 °F 85.0 °F 62.6 °F 48% 29.98 in - ENE 10.4 mph - N/A   Clear
6:50 PM 80.6 °F 81.8 °F 62.6 °F 54% 29.98 in - ESE 6.9 mph - N/A   Clear
7:50 PM 77.0 °F - 62.6 °F 61% 29.98 in - East 6.9 mph - N/A   Clear
8:50 PM 77.0 °F - 62.6 °F 61% 30.01 in - ENE 11.5 mph - N/A   Clear
9:50 PM 75.2 °F - 60.8 °F 61% 30.01 in - NE 13.8 mph - N/A   Clear
10:50 PM 75.2 °F - 66.2 °F 73% 30.01 in - ENE 15.0 mph - N/A   Clear
11:50 PM 73.4 °F - 64.4 °F 73% 30.01 in - ENE 12.7 mph - N/A   Clear